Location: Cazavet
(43.0017°N, 1.0431°E)
Time: 23:25:29
(UTC+00:00)

Cosmos 1953 - Pass Details

Date: 18 January 2026
Orbit: 474 x 489 km, 82.5° (Epoch: 13 February)

Event Time Altitude Azimuth Distance (km) Brightness Sun altitude
Rises 06:29:46 0° 191° (S) 2,531 5.8 -9.7°
Reaches altitude 10° 06:31:51 10° 193° (SSW) 1,659 4.9 -9.4°
Maximum altitude 06:35:28 73° 278° (W) 512 2.0 -8.7°
Drops below altitude 10° 06:39:09 10° 4° (N) 1,685 4.6 -8.1°
Sets 06:41:17 0° 7° (N) 2,574 5.6 -7.7°
